Regional Weather Roundup
Issued by NWS

Home | Current Version | Previous Version | Graphics & Text | Print | Product List | Glossary On
Versions: 1 2 3 4 5 6 7 8 9 10 11 12 13 14 15 16 17 18 19 20 21 22 23 24 25 26 27 28 29 30 31 32 33 34 35 36 37 38 39 40 41 42 43 44 45 46 47 48 49 50
000
ASUS45 KTFX 301504
RWRMT
MONTANA HOURLY WEATHER ROUNDUP
NATIONAL WEATHER SERVICE GREAT FALLS MT
904 AM MDT SAT AUG 30 2014

NOTE: "FAIR" INDICATES FEW OR NO CLOUDS BELOW 12000 FEET WITH NO
SIGNIFICANT WEATHER AND/OR OBSTRUCTIONS TO VISIBILITY.

* THESE STATIONS ARE NOT UNDER NWS QUALITY CONTROL. THEY DO NOT
   REPORT WEATHER SUCH AS PRECIPITATION OR FOG.

MTZ001>007-043-301600-
WEST OF THE DIVIDE
CITY           SKY/WX    TMP DP  RH WIND       PRES   REMARKS
KALISPELL      PTSUNNY   61  48  62 SE3       29.82R
MISSOULA       CLOUDY    63  46  54 CALM      29.89S
BUTTE          CLOUDY    54  48  80 CALM      29.95F
MULLAN PASS    PTSUNNY   46  39  77 VRB3      29.97S
* LINCOLN      N/A       47  46  96 NE2        N/A
* LOOKOUT PASS N/A       51  41  69 S1         N/A
* POLSON       N/A       62  47  58 SW2G9      N/A
* RONAN APT    PTSUNNY   66  46  49 N/A        N/A
* SEELEY LAKE  N/A       48  47  96 N/A        N/A
* THOMP F APT  PTSUNNY   58  42  55 NW4G15     N/A
$$

MTZ008-052>055-301600-
SOUTHWEST MONTANA
CITY           SKY/WX    TMP DP  RH WIND       PRES   REMARKS
BOZEMAN        CLOUDY    57  52  83 SE7       29.91F
DILLON         CLOUDY    55  52  90 SW8       29.94S
W YELLOWSTONE  CLOUDY    54  46  74 CALM      30.04F
* THREE FORKS  CLOUDY    57  39  51 N/A        N/A
* BOULDER HILL N/A       54  39  57 SW8        N/A
* MONIDA PASS  N/A       50  49  96 NW3        N/A
* RAYNOLDS PAS N/A       51  50  96 N3         N/A
* WHITEHALL    N/A       56  52  87 W3         N/A
* WISE RIVER   N/A       50  47  89 W4         N/A
$$

MTZ009>010-012-014-046-048-049-054-301600-
EAST SLOPES AND CENTRAL MONTANA
CITY           SKY/WX    TMP DP  RH WIND       PRES   REMARKS
CUT BANK       PTSUNNY   63  45  52 W12       29.80S
GREAT FALLS    CLOUDY    64  45  50 SW9       29.81F
HELENA         CLOUDY    64  45  50 N6        29.87S
* CONRAD       CLOUDY    64  45  50 SW11       N/A
* EAST GLACIER N/A       58  42  55 W14        N/A
* MONARCH      N/A       55  40  57 N/A        N/A
* PENDROY      N/A       60  43  54 NW8        N/A
* ROGERS PASS  N/A       51  42  71 SE7G12     N/A
* SAINT MARY   N/A       60  41  50 S6G14      N/A
* SWEET GRASS  N/A       61  42  50 W8         N/A
$$

MTZ011-013-016-021-035-040-045-047-050-051-301600-
NORTH CENTRAL MONTANA
CITY           SKY/WX    TMP DP  RH WIND       PRES   REMARKS
HAVRE          CLOUDY    63  54  73 NW8       29.74F
LEWISTOWN      RAIN      57  54  90 CALM      29.89R
* CHESTER      N/A       60  48  65 N/A        N/A
* DENTON       N/A       57  51  80 N6         N/A
* GEYSER       N/A       58  45  62 NE9        N/A
* JUDITH GAP   N/A       56  55  96 VRB4       N/A
* LOMA         N/A       62  51  67 S4         N/A
$$

MTZ017>020-022>027-061-062-301600-
NORTHEAST MONTANA
CITY           SKY/WX    TMP DP  RH WIND       PRES   REMARKS
GLASGOW        CLOUDY    59  55  87 SE6       29.72R
GLENDIVE       PTCLDY    64  55  73 SE5       29.80F
JORDAN         CLOUDY    63  55  75 CALM      29.76R
SIDNEY         SUNNY     63  57  81 S13       29.82F
WOLF POINT     LGT RAIN  61  54  78 E6        29.80S
* BEAVER HILL  N/A       61  55  81 SE24G34    N/A
* CIRCLE       N/A       62  55  78 N/A        N/A
* LINDSAY DVD  N/A       58  56  93 E12        N/A
* NAVAJO       N/A       58  53  84 S12G19     N/A
$$

MTZ028>042-056>058-301600-
SOUTHCENTRAL AND SOUTHEAST MONTANA
CITY           SKY/WX    TMP DP  RH WIND       PRES   REMARKS
BAKER          SUNNY     63  55  75 SE21G37   29.82F
BILLINGS       LGT RAIN  64  54  70 W13       29.85R
LIVINGSTON     CLOUDY    57  52  83 W10       29.89F
MILES CITY     PTCLDY    66  54  65 N/A       29.75S
* LAUREL APT   CLOUDY    63  52  68 N/A        N/A
* ROUNDUP APT  CLOUDY    61  54  78 SW8        N/A
* ALZADA       N/A       56  55  96 E5         N/A
* HYSHAM       N/A       59  52  78 W6         N/A
* LAME DEER    N/A       63  51  65 S7         N/A
* REED POINT   N/A       62  48  60 W12G19     N/A
* ROSCOE HILL  N/A       62  36  38 SW8G28     N/A
$$

REGIONAL REPORTS...DAKOTAS
CITY           SKY/WX    TMP DP  RH WIND       PRES   REMARKS
WILLISTON      SUNNY     63  54  73 S8G18     29.84F
DICKINSON      SUNNY     57  54  90 SE22      29.88F
BEACH          N/A       59  59 100 SE24G35   29.83F
CROSBY         SUNNY     63  55  75 S16G23    29.84F
TIOGA          SUNNY     59  59 100 S20G26    29.90S
WATFORD CITY   SUNNY     63  54  73 SE17G24   29.83F
BISMARCK       FOG       54  54 100 CALM      29.96F VSB M1/4
GRAND FORKS    SUNNY     59  52  78 NE6       29.93F
FARGO          CLOUDY    55  54  96 N9        29.92S
BUFFALO SD     SUNNY     57  55  93 SE17      29.82F
RAPID CITY     SUNNY     63  57  81 SE13      29.91F
$$

REGIONAL REPORTS...WYOMING/IDAHO/WASHINGTON
CITY           SKY/WX    TMP DP  RH WIND       PRES   REMARKS
GILLETTE       PTCLDY    64  52  65 S21       29.88S
SHERIDAN       CLOUDY    59  52  78 N3        29.81F
CODY           PTSUNNY   64  48  56 W3        29.89R
YELLOWSTONE LA PTSUNNY   52  46  80 CALM      30.11F
SALMON         CLOUDY    57  52  83 N3        29.91S
MULLAN PASS    PTSUNNY   46  39  77 VRB3      29.97S
SAND POINT     PTSUNNY   55  45  69 SW5       29.86S
SPOKANE        PTCLDY    55  45  69 S9        29.88S

$$




USA.gov is the U.S. government's official web portal to all federal, state and local government web resources and services.